AKDT,Max TemperatureF,Mean TemperatureF,Min TemperatureF,Max Dew PointF,MeanDew PointF,Min DewpointF,Max Humidity, Mean Humidity, Min Humidity, Max Sea Level PressureIn, Mean Sea Level PressureIn, Min Sea Level PressureIn, Max VisibilityMiles, Mean VisibilityMiles, Min VisibilityMiles, Max Wind SpeedMPH, Mean Wind SpeedMPH, Max Gust SpeedMPH,PrecipitationIn, CloudCover, Events, WindDirDegrees
2013-5-1,42,39,35,37,35,31,0,0,0,29.67,29.58,29.50,10,9,3,13,10,16,0.27,8,Rain,42
2013-5-2,49,43,37,40,37,35,0,0,0,29.82,29.74,29.65,10,10,10,16,6,20,T,7,Rain,169
2013-5-3,44,42,40,39,36,30,0,0,0,29.94,29.88,29.78,10,9,4,14,7,16,0.00,8,Rain-Snow,7
2013-5-4,44,39,33,30,27,19,0,0,0,30.07,29.86,29.75,10,6,1,20,10,25,0.08,6,Rain-Snow,293
2013-5-5,47,40,32,28,22,18,0,0,0,30.21,30.16,30.08,10,10,10,14,9,20,0.00,3,,298
2013-5-6,44,37,29,33,29,24,0,0,0,30.27,30.24,30.21,10,10,10,12,7,17,0.00,5,,347
2013-5-7,42,40,37,32,30,26,76,69,55,30.28,30.26,30.25,10,10,10,13,5,15,0.00,8,,309
2013-5-8,44,40,35,37,35,30,0,0,0,30.28,30.26,30.22,10,8,1,9,2,10,0.00,8,,87
2013-5-9,44,42,39,38,36,33,0,0,0,30.26,30.23,30.21,10,10,5,13,6,15,0.02,8,Rain,52
2013-5-10,51,45,39,38,34,26,0,0,0,30.20,30.05,29.94,10,10,10,22,10,29,T,7,,328
2013-5-11,46,44,42,41,39,37,0,0,0,29.92,29.71,29.54,10,9,7,17,10,22,0.16,8,Rain,316
2013-5-12,52,48,43,42,39,36,0,0,0,29.54,29.51,29.49,10,10,3,22,12,28,0.10,7,Rain,307
2013-5-13,56,46,35,40,34,28,0,0,0,29.53,29.47,29.44,10,10,10,15,7,22,0.00,4,,281
2013-5-14,49,42,34,36,26,18,0,0,0,29.71,29.62,29.53,10,10,10,14,7,16,0.00,3,,344
2013-5-15,48,40,31,38,31,24,0,0,0,29.72,29.68,29.59,10,9,4,17,7,20,0.00,7,Rain,73
2013-5-16,43,41,38,38,35,33,0,0,0,29.56,29.44,29.39,10,9,4,23,16,29,0.28,8,Rain,314
2013-5-17,46,40,33,34,27,18,0,0,0,29.65,29.51,29.43,10,10,10,26,16,33,T,6,,292
2013-5-18,42,36,30,18,14,10,0,0,0,30.26,29.94,29.68,10,10,8,31,15,44,T,3,Snow,271
2013-5-19,48,38,28,28,22,15,0,0,0,30.64,30.50,30.29,10,10,10,14,0,16,0.00,0,,272
2013-5-20,46,39,32,34,30,25,0,0,0,30.66,30.63,30.56,10,10,10,12,5,16,0.00,7,,319
2013-5-21,48,45,41,39,36,32,0,0,0,30.56,30.42,30.27,10,10,10,17,8,21,T,8,Rain,186
2013-5-22,49,46,43,43,41,38,0,0,0,30.25,30.16,30.11,10,9,4,18,9,22,0.21,8,Rain,170
2013-5-23,48,46,43,45,42,41,0,0,0,30.14,30.13,30.11,10,5,0,12,5,13,T,8,Fog-Rain,70
2013-5-24,55,49,42,44,41,39,0,0,0,30.13,30.08,30.01,10,6,0,3,3,5,0.00,5,Fog,57
2013-5-25,48,43,37,41,39,34,0,0,0,30.01,29.95,29.90,10,8,2,17,9,18,0.01,5,Rain,57
2013-5-26,45,43,41,43,40,38,0,0,0,29.90,29.86,29.83,10,7,2,22,14,25,0.19,8,Rain,52
2013-5-27,46,45,43,43,42,41,0,0,0,29.82,29.81,29.78,10,7,3,18,13,23,0.30,8,Rain,48
2013-5-28,61,52,43,45,41,38,0,0,0,29.78,29.73,29.67,10,10,4,12,5,15,0.00,7,Rain,26
2013-5-29,61,53,45,45,42,38,0,0,0,29.79,29.71,29.67,10,10,10,14,5,18,0.00,1,,59
2013-5-30,58,49,40,45,42,37,0,0,0,30.04,29.94,29.81,10,10,10,15,7,18,T,4,Rain,48
2013-5-31,50,47,43,45,43,42,0,0,0,30.19,30.12,30.05,10,9,3,13,5,14,0.00,8,,74